Wetterdaten: Woche 30.11.15 - 06.12.15 (KW49)
Datum Zeit Temp. I. Temp. A. Feuchte I. Feuchte A. Luftdruck Regen Wind Richtung Sonnenschein UV Solar Taupunkt Windchill Windben
30.11.2015 00:00 22,9 C 7,1 C 43 % 93 % 1014,2 hPa 0,2 l/m 18,0 km/h (3 Bft) W-SW 0,00 h 0,0 UV-I 0 W/m 6,0 C 0,4 C 29,2 km/h (5 Bft)
30.11.2015 01:00 22,8 C 7,3 C 43 % 92 % 1013,6 hPa 0,6 l/m 19,5 km/h (3 Bft) W-SW 0,00 h 0,0 UV-I 0 W/m 6,1 C 0,2 C 31,1 km/h (5 Bft)
30.11.2015 02:00 22,8 C 7,4 C 44 % 92 % 1013,8 hPa 0,4 l/m 21,0 km/h (4 Bft) W-SW 0,00 h 0,0 UV-I 0 W/m 6,2 C -0,4 C 31,6 km/h (5 Bft)
30.11.2015 03:00 22,9 C 7,5 C 45 % 91 % 1013,8 hPa 0,6 l/m 21,3 km/h (4 Bft) W-SW 0,00 h 0,0 UV-I 0 W/m 6,1 C -0,3 C 34,6 km/h (5 Bft)
30.11.2015 04:00 22,9 C 7,4 C 46 % 92 % 1014,3 hPa 0,6 l/m 22,7 km/h (4 Bft) W-SW 0,00 h 0,0 UV-I 0 W/m 6,1 C -0,9 C 34,6 km/h (5 Bft)
30.11.2015 05:00 22,9 C 7,0 C 47 % 93 % 1015,3 hPa 2,0 l/m 18,4 km/h (3 Bft) W 0,00 h 0,0 UV-I 0 W/m 5,9 C 0,2 C 29,8 km/h (5 Bft)
30.11.2015 06:00 23,0 C 5,8 C 47 % 93 % 1016,5 hPa 0,4 l/m 11,5 km/h (2 Bft) W 0,00 h 0,0 UV-I 0 W/m 4,8 C 2,3 C 18,8 km/h (3 Bft)
30.11.2015 07:00 23,0 C 5,8 C 48 % 94 % 1017,2 hPa 0,8 l/m 10,1 km/h (2 Bft) W 0,00 h 0,0 UV-I 0 W/m 4,9 C 2,9 C 16,2 km/h (3 Bft)
30.11.2015 08:00 23,0 C 5,9 C 48 % 95 % 1018,0 hPa 0,6 l/m 8,2 km/h (2 Bft) W 0,00 h 0,0 UV-I 9 W/m 5,1 C 4,3 C 13,8 km/h (3 Bft)
30.11.2015 09:00 22,8 C 5,9 C 47 % 94 % 1019,0 hPa 0,2 l/m 10,8 km/h (2 Bft) W 0,00 h 0,0 UV-I 18 W/m 4,9 C 2,6 C 16,6 km/h (3 Bft)
30.11.2015 10:00 22,5 C 5,8 C 44 % 90 % 1019,5 hPa 0,2 l/m 11,8 km/h (2 Bft) W 0,00 h 0,0 UV-I 41 W/m 4,4 C 2,0 C 18,6 km/h (3 Bft)
30.11.2015 11:00 21,4 C 5,6 C 41 % 89 % 1019,9 hPa 0,0 l/m 9,8 km/h (2 Bft) W-SW 0,00 h 0,5 UV-I 47 W/m 4,0 C 3,0 C 15,5 km/h (3 Bft)
30.11.2015 12:00 21,8 C 5,5 C 42 % 90 % 1019,7 hPa 0,2 l/m 10,7 km/h (2 Bft) W 0,00 h 0,0 UV-I 32 W/m 4,0 C 2,4 C 16,3 km/h (3 Bft)
30.11.2015 13:00 22,0 C 5,1 C 42 % 92 % 1019,3 hPa 0,4 l/m 6,6 km/h (2 Bft) W-SW 0,00 h 0,0 UV-I 14 W/m 4,0 C 4,1 C 11,3 km/h (2 Bft)
30.11.2015 14:00 22,0 C 4,9 C 42 % 94 % 1018,9 hPa 0,4 l/m 0,5 km/h (0 Bft) S 0,00 h 0,0 UV-I 10 W/m 4,0 C 4,9 C 1,9 km/h (1 Bft)
30.11.2015 15:00 22,3 C 5,2 C 43 % 96 % 1017,6 hPa 0,4 l/m 1,1 km/h (1 Bft) S 0,00 h 0,0 UV-I 5 W/m 4,5 C 5,2 C 4,1 km/h (1 Bft)
30.11.2015 16:00 22,5 C 6,8 C 46 % 96 % 1016,6 hPa 0,2 l/m 13,0 km/h (3 Bft) W-SW 0,00 h 0,0 UV-I 0 W/m 6,3 C 2,3 C 21,6 km/h (4 Bft)
30.11.2015 17:00 22,6 C 7,4 C 47 % 94 % 1016,3 hPa 0,4 l/m 18,3 km/h (3 Bft) W-SW 0,00 h 0,0 UV-I 0 W/m 6,4 C 0,7 C 29,5 km/h (5 Bft)
30.11.2015 18:00 22,8 C 7,3 C 47 % 93 % 1016,1 hPa 1,2 l/m 18,6 km/h (3 Bft) W-SW 0,00 h 0,0 UV-I 0 W/m 6,3 C 0,5 C 30,1 km/h (5 Bft)
30.11.2015 19:00 22,7 C 7,2 C 47 % 93 % 1015,6 hPa 1,6 l/m 14,9 km/h (3 Bft) W-SW 0,00 h 0,0 UV-I 0 W/m 6,2 C 2,0 C 24,4 km/h (4 Bft)
30.11.2015 20:00 22,9 C 7,3 C 48 % 93 % 1014,8 hPa 1,2 l/m 15,7 km/h (3 Bft) W-SW 0,00 h 0,0 UV-I 0 W/m 6,2 C 1,8 C 25,3 km/h (4 Bft)
30.11.2015 21:00 22,9 C 7,4 C 48 % 93 % 1014,5 hPa 1,8 l/m 18,9 km/h (3 Bft) W-SW 0,00 h 0,0 UV-I 0 W/m 6,3 C 0,5 C 29,7 km/h (5 Bft)
30.11.2015 22:00 23,0 C 7,4 C 48 % 93 % 1014,3 hPa 1,4 l/m 19,9 km/h (4 Bft) W-SW 0,00 h 0,0 UV-I 0 W/m 6,2 C 0,0 C 31,4 km/h (5 Bft)
30.11.2015 23:00 22,7 C 7,5 C 47 % 93 % 1014,3 hPa 1,0 l/m 19,3 km/h (3 Bft) W-SW 0,00 h 0,0 UV-I 0 W/m 6,4 C 0,5 C 27,1 km/h (4 Bft)
01.12.2015 00:00 22,4 C 7,7 C 47 % 93 % 1014,3 hPa 0,4 l/m 18,4 km/h (3 Bft) W-SW 0,00 h 0,0 UV-I 0 W/m 6,6 C 1,1 C 30,0 km/h (5 Bft)
01.12.2015 01:00 22,7 C 7,7 C 47 % 94 % 1014,6 hPa 0,4 l/m 18,4 km/h (3 Bft) W-SW 0,00 h 0,0 UV-I 0 W/m 6,8 C 1,0 C 29,0 km/h (5 Bft)
01.12.2015 02:00 22,9 C 7,8 C 48 % 94 % 1015,1 hPa 0,2 l/m 17,4 km/h (3 Bft) W-SW 0,00 h 0,0 UV-I 0 W/m 6,9 C 1,5 C 28,6 km/h (4 Bft)
01.12.2015 03:00 23,0 C 7,9 C 49 % 95 % 1015,8 hPa 0,2 l/m 16,5 km/h (3 Bft) W-SW 0,00 h 0,0 UV-I 0 W/m 7,1 C 2,0 C 27,2 km/h (4 Bft)
01.12.2015 04:00 23,0 C 8,1 C 50 % 95 % 1016,6 hPa 0,2 l/m 14,9 km/h (3 Bft) W-SW 0,00 h 0,0 UV-I 0 W/m 7,3 C 3,0 C 24,6 km/h (4 Bft)
01.12.2015 05:00 22,9 C 8,1 C 49 % 95 % 1017,3 hPa 0,0 l/m 12,0 km/h (2 Bft) W-SW 0,00 h 0,0 UV-I 0 W/m 7,4 C 4,5 C 19,1 km/h (3 Bft)
01.12.2015 06:00 23,0 C 8,1 C 50 % 96 % 1018,2 hPa 0,0 l/m 11,2 km/h (2 Bft) W-SW 0,00 h 0,0 UV-I 0 W/m 7,5 C 4,9 C 18,4 km/h (3 Bft)
01.12.2015 07:00 23,1 C 8,2 C 50 % 96 % 1018,9 hPa 0,2 l/m 11,7 km/h (2 Bft) W-SW 0,00 h 0,0 UV-I 0 W/m 7,6 C 4,6 C 19,1 km/h (3 Bft)
01.12.2015 08:00 23,1 C 8,1 C 50 % 96 % 1019,7 hPa 0,4 l/m 10,7 km/h (2 Bft) W-SW 0,00 h 0,0 UV-I 8 W/m 7,5 C 5,2 C 17,6 km/h (3 Bft)
01.12.2015 09:00 23,2 C 8,0 C 50 % 96 % 1020,5 hPa 2,2 l/m 7,5 km/h (2 Bft) NW 0,00 h 0,0 UV-I 13 W/m 7,4 C 6,6 C 12,3 km/h (3 Bft)
01.12.2015 10:00 23,3 C 7,1 C 51 % 96 % 1021,5 hPa 1,0 l/m 3,4 km/h (1 Bft) NW 0,00 h 0,0 UV-I 40 W/m 6,5 C 6,9 C 6,4 km/h (2 Bft)
01.12.2015 11:00 23,1 C 6,9 C 51 % 96 % 1021,8 hPa 0,4 l/m 0,2 km/h (0 Bft) NW 0,00 h 0,0 UV-I 39 W/m 6,4 C 6,9 C 0,4 km/h (0 Bft)
01.12.2015 12:00 23,3 C 7,3 C 52 % 97 % 1022,1 hPa 0,2 l/m 0,0 km/h (0 Bft) N 0,00 h 0,0 UV-I 35 W/m 6,9 C 7,3 C 0,1 km/h (0 Bft)
01.12.2015 13:00 23,3 C 7,6 C 52 % 97 % 1022,5 hPa 0,2 l/m 1,4 km/h (1 Bft) W 0,00 h 0,0 UV-I 23 W/m 7,1 C 7,6 C 3,7 km/h (1 Bft)
01.12.2015 14:00 23,0 C 7,7 C 51 % 97 % 1023,0 hPa 0,4 l/m 1,1 km/h (1 Bft) W 0,00 h 0,0 UV-I 15 W/m 7,3 C 7,7 C 3,9 km/h (1 Bft)
01.12.2015 15:00 23,2 C 7,7 C 51 % 97 % 1023,4 hPa 0,4 l/m 1,0 km/h (0 Bft) W 0,00 h 0,0 UV-I 6 W/m 7,3 C 7,7 C 2,9 km/h (1 Bft)
01.12.2015 16:00 23,1 C 7,5 C 51 % 97 % 1023,8 hPa 0,6 l/m 0,6 km/h (0 Bft) W 0,00 h 0,0 UV-I 0 W/m 7,1 C 7,5 C 1,8 km/h (1 Bft)
01.12.2015 17:00 23,2 C 7,4 C 52 % 97 % 1024,1 hPa 0,4 l/m 0,5 km/h (0 Bft) W 0,00 h 0,0 UV-I 0 W/m 7,0 C 7,4 C 1,3 km/h (1 Bft)
01.12.2015 18:00 23,4 C 7,4 C 54 % 97 % 1024,5 hPa 0,8 l/m 0,2 km/h (0 Bft) W 0,00 h 0,0 UV-I 0 W/m 7,0 C 7,4 C 0,7 km/h (0 Bft)
01.12.2015 19:00 23,4 C 7,3 C 54 % 97 % 1024,8 hPa 0,8 l/m 0,3 km/h (0 Bft) S 0,00 h 0,0 UV-I 0 W/m 6,9 C 7,3 C 0,8 km/h (0 Bft)
01.12.2015 20:00 23,6 C 7,4 C 54 % 97 % 1025,2 hPa 0,8 l/m 0,4 km/h (0 Bft) SW 0,00 h 0,0 UV-I 0 W/m 6,9 C 7,4 C 1,0 km/h (0 Bft)
01.12.2015 21:00 23,7 C 7,6 C 55 % 97 % 1025,6 hPa 0,4 l/m 1,5 km/h (1 Bft) W-SW 0,00 h 0,0 UV-I 0 W/m 7,2 C 7,6 C 3,7 km/h (1 Bft)
01.12.2015 22:00 23,7 C 8,1 C 54 % 98 % 1025,7 hPa 0,0 l/m 4,4 km/h (1 Bft) W-SW 0,00 h 0,0 UV-I 0 W/m 7,8 C 8,0 C 9,0 km/h (2 Bft)
01.12.2015 23:00 23,4 C 8,7 C 54 % 97 % 1025,9 hPa 0,0 l/m 6,4 km/h (2 Bft) W-SW 0,00 h 0,0 UV-I 0 W/m 8,3 C 8,0 C 12,6 km/h (3 Bft)
02.12.2015 00:00 23,1 C 8,9 C 53 % 97 % 1026,1 hPa 0,0 l/m 8,2 km/h (2 Bft) W 0,00 h 0,0 UV-I 0 W/m 8,5 C 7,3 C 17,3 km/h (3 Bft)
02.12.2015 01:00 23,0 C 8,8 C 53 % 97 % 1026,3 hPa 0,0 l/m 9,6 km/h (2 Bft) W-SW 0,00 h 0,0 UV-I 0 W/m 8,4 C 6,4 C 16,3 km/h (3 Bft)
02.12.2015 02:00 22,8 C 8,7 C 53 % 97 % 1026,8 hPa 0,0 l/m 2,6 km/h (1 Bft) SW 0,00 h 0,0 UV-I 0 W/m 8,3 C 8,5 C 6,2 km/h (2 Bft)
02.12.2015 03:00 22,7 C 8,6 C 53 % 97 % 1026,8 hPa 0,2 l/m 1,5 km/h (1 Bft) SW 0,00 h 0,0 UV-I 0 W/m 8,2 C 8,6 C 4,7 km/h (1 Bft)
02.12.2015 04:00 22,7 C 8,6 C 53 % 97 % 1026,8 hPa 0,2 l/m 3,1 km/h (1 Bft) SW 0,00 h 0,0 UV-I 0 W/m 8,2 C 8,5 C 7,2 km/h (2 Bft)
02.12.2015 05:00 22,6 C 8,5 C 53 % 97 % 1026,8 hPa 0,2 l/m 2,1 km/h (1 Bft) W-SW 0,00 h 0,0 UV-I 0 W/m 8,1 C 8,4 C 6,0 km/h (2 Bft)
02.12.2015 06:00 22,7 C 8,5 C 52 % 96 % 1026,9 hPa 0,0 l/m 4,3 km/h (1 Bft) W-SW 0,00 h 0,0 UV-I 0 W/m 8,0 C 8,3 C 9,4 km/h (2 Bft)
02.12.2015 07:00 22,6 C 8,4 C 52 % 96 % 1027,3 hPa 0,0 l/m 2,2 km/h (1 Bft) W-SW 0,00 h 0,0 UV-I 0 W/m 7,8 C 8,4 C 5,6 km/h (1 Bft)
02.12.2015 08:00 22,7 C 8,1 C 53 % 95 % 1027,9 hPa 0,0 l/m 3,8 km/h (1 Bft) W 0,00 h 0,0 UV-I 13 W/m 7,3 C 7,9 C 8,0 km/h (2 Bft)
02.12.2015 09:00 23,2 C 7,9 C 55 % 92 % 1028,6 hPa 0,0 l/m 3,8 km/h (1 Bft) W 0,00 h 0,0 UV-I 28 W/m 6,6 C 7,6 C 7,5 km/h (2 Bft)
02.12.2015 10:00 23,1 C 7,8 C 54 % 88 % 1029,0 hPa 0,0 l/m 3,8 km/h (1 Bft) W-NW 0,00 h 0,0 UV-I 43 W/m 5,9 C 7,5 C 8,4 km/h (2 Bft)
02.12.2015 11:00 23,2 C 7,8 C 54 % 86 % 1029,4 hPa 0,0 l/m 0,6 km/h (0 Bft) W 0,00 h 0,0 UV-I 42 W/m 5,6 C 7,8 C 2,1 km/h (1 Bft)
02.12.2015 12:00 23,3 C 7,8 C 55 % 86 % 1029,7 hPa 0,0 l/m 1,3 km/h (1 Bft) W-SW 0,00 h 0,0 UV-I 38 W/m 5,7 C 7,8 C 3,1 km/h (1 Bft)
02.12.2015 13:00 23,3 C 7,8 C 53 % 90 % 1029,3 hPa 0,0 l/m 0,0 km/h (0 Bft) W-NW 0,00 h 0,0 UV-I 41 W/m 6,2 C 7,8 C 0,2 km/h (0 Bft)
02.12.2015 14:00 23,2 C 7,9 C 53 % 88 % 1029,2 hPa 0,0 l/m 0,1 km/h (0 Bft) SW 0,00 h 0,0 UV-I 26 W/m 6,1 C 7,9 C 0,4 km/h (0 Bft)
02.12.2015 15:00 23,3 C 7,6 C 52 % 92 % 1029,2 hPa 0,0 l/m 0,0 km/h (0 Bft) N 0,00 h 0,0 UV-I 8 W/m 6,4 C 7,6 C 0,0 km/h (0 Bft)
02.12.2015 16:00 23,5 C 7,4 C 53 % 93 % 1029,1 hPa 0,0 l/m 0,5 km/h (0 Bft) S-SO 0,00 h 0,0 UV-I 0 W/m 6,3 C 7,4 C 1,1 km/h (1 Bft)
02.12.2015 17:00 23,5 C 7,4 C 54 % 95 % 1029,1 hPa 0,0 l/m 0,3 km/h (0 Bft) SW 0,00 h 0,0 UV-I 0 W/m 6,6 C 7,4 C 1,1 km/h (0 Bft)
02.12.2015 18:00 23,6 C 7,3 C 54 % 95 % 1029,4 hPa 0,0 l/m 0,1 km/h (0 Bft) W 0,00 h 0,0 UV-I 0 W/m 6,5 C 7,3 C 0,4 km/h (0 Bft)
02.12.2015 19:00 23,8 C 7,1 C 54 % 93 % 1029,5 hPa 0,0 l/m 0,0 km/h (0 Bft) W 0,00 h 0,0 UV-I 0 W/m 6,0 C 7,1 C 0,1 km/h (0 Bft)
02.12.2015 20:00 23,9 C 6,9 C 54 % 92 % 1029,6 hPa 0,0 l/m 0,0 km/h (0 Bft) N 0,00 h 0,0 UV-I 0 W/m 5,7 C 6,9 C 0,0 km/h (0 Bft)
02.12.2015 21:00 23,8 C 6,7 C 54 % 91 % 1029,7 hPa 0,0 l/m 0,0 km/h (0 Bft) N 0,00 h 0,0 UV-I 0 W/m 5,3 C 6,7 C 0,1 km/h (0 Bft)
02.12.2015 22:00 23,8 C 6,6 C 53 % 90 % 1029,6 hPa 0,0 l/m 0,0 km/h (0 Bft) N 0,00 h 0,0 UV-I 0 W/m 5,1 C 6,6 C 0,0 km/h (0 Bft)
02.12.2015 23:00 23,6 C 6,3 C 53 % 92 % 1029,6 hPa 0,0 l/m 0,0 km/h (0 Bft) N 0,00 h 0,0 UV-I 0 W/m 5,0 C 6,3 C 0,0 km/h (0 Bft)
03.12.2015 00:00 23,3 C 6,0 C 53 % 93 % 1029,9 hPa 0,0 l/m 0,0 km/h (0 Bft) N 0,00 h 0,0 UV-I 0 W/m 5,0 C 6,0 C 0,0 km/h (0 Bft)
03.12.2015 01:00 23,2 C 5,8 C 53 % 94 % 1029,9 hPa 0,0 l/m 0,0 km/h (0 Bft) N 0,00 h 0,0 UV-I 0 W/m 4,9 C 5,8 C 0,0 km/h (0 Bft)
03.12.2015 02:00 23,0 C 5,7 C 53 % 95 % 1030,0 hPa 0,0 l/m 0,0 km/h (0 Bft) SO 0,00 h 0,0 UV-I 0 W/m 4,9 C 5,7 C 0,2 km/h (0 Bft)
03.12.2015 03:00 22,9 C 5,6 C 53 % 95 % 1030,0 hPa 0,0 l/m 0,0 km/h (0 Bft) N 0,00 h 0,0 UV-I 0 W/m 4,8 C 5,6 C 0,0 km/h (0 Bft)
03.12.2015 04:00 22,9 C 5,4 C 53 % 95 % 1030,1 hPa 0,0 l/m 0,0 km/h (0 Bft) N 0,00 h 0,0 UV-I 0 W/m 4,7 C 5,4 C 0,0 km/h (0 Bft)
03.12.2015 05:00 22,8 C 5,2 C 53 % 96 % 1030,3 hPa 0,0 l/m 0,0 km/h (0 Bft) N 0,00 h 0,0 UV-I 0 W/m 4,6 C 5,2 C 0,1 km/h (0 Bft)
03.12.2015 06:00 22,8 C 5,1 C 53 % 96 % 1030,6 hPa 0,0 l/m 0,0 km/h (0 Bft) N 0,00 h 0,0 UV-I 0 W/m 4,6 C 5,1 C 0,0 km/h (0 Bft)
03.12.2015 07:00 22,8 C 5,0 C 53 % 96 % 1031,0 hPa 0,0 l/m 0,0 km/h (0 Bft) S-SW 0,00 h 0,0 UV-I 0 W/m 4,5 C 5,0 C 0,2 km/h (0 Bft)
03.12.2015 08:00 23,0 C 5,0 C 54 % 96 % 1031,4 hPa 0,0 l/m 0,1 km/h (0 Bft) NO 0,00 h 0,0 UV-I 14 W/m 4,4 C 5,0 C 0,3 km/h (0 Bft)
03.12.2015 09:00 23,3 C 5,3 C 53 % 96 % 1031,6 hPa 0,0 l/m 0,0 km/h (0 Bft) N 0,00 h 0,0 UV-I 32 W/m 4,6 C 5,3 C 0,0 km/h (0 Bft)
03.12.2015 10:00 23,3 C 5,8 C 53 % 94 % 1031,8 hPa 0,0 l/m 0,1 km/h (0 Bft) S-SO 0,00 h 0,0 UV-I 37 W/m 4,8 C 5,8 C 0,1 km/h (0 Bft)
03.12.2015 11:00 23,3 C 6,3 C 52 % 91 % 1031,3 hPa 0,0 l/m 0,7 km/h (0 Bft) S-SO 0,00 h 0,0 UV-I 51 W/m 5,0 C 6,3 C 1,4 km/h (1 Bft)
03.12.2015 12:00 23,3 C 6,6 C 51 % 86 % 1031,1 hPa 0,0 l/m 0,9 km/h (0 Bft) S 0,00 h 0,0 UV-I 42 W/m 4,3 C 6,5 C 2,0 km/h (1 Bft)
03.12.2015 13:00 23,1 C 6,6 C 48 % 84 % 1030,8 hPa 0,0 l/m 0,7 km/h (0 Bft) S 0,00 h 0,0 UV-I 37 W/m 4,1 C 6,6 C 2,4 km/h (1 Bft)
03.12.2015 14:00 22,9 C 6,4 C 47 % 83 % 1030,6 hPa 0,0 l/m 1,1 km/h (1 Bft) SO 0,00 h 0,0 UV-I 30 W/m 3,8 C 6,4 C 3,5 km/h (1 Bft)
03.12.2015 15:00 22,8 C 6,2 C 45 % 84 % 1030,5 hPa 0,0 l/m 1,5 km/h (1 Bft) S-SO 0,00 h 0,0 UV-I 11 W/m 3,7 C 6,2 C 3,8 km/h (1 Bft)
03.12.2015 16:00 23,1 C 5,9 C 45 % 85 % 1030,2 hPa 0,0 l/m 0,8 km/h (0 Bft) S-SO 0,00 h 0,0 UV-I 0 W/m 3,6 C 5,9 C 2,6 km/h (1 Bft)
03.12.2015 17:00 23,0 C 5,7 C 45 % 85 % 1030,2 hPa 0,0 l/m 3,0 km/h (1 Bft) S-SO 0,00 h 0,0 UV-I 0 W/m 3,4 C 5,4 C 5,6 km/h (1 Bft)
03.12.2015 18:00 23,1 C 5,4 C 46 % 86 % 1030,3 hPa 0,0 l/m 4,5 km/h (1 Bft) S-SO 0,00 h 0,0 UV-I 0 W/m 3,2 C 5,2 C 8,1 km/h (2 Bft)
03.12.2015 19:00 23,2 C 5,3 C 46 % 87 % 1029,9 hPa 0,0 l/m 4,4 km/h (1 Bft) S 0,00 h 0,0 UV-I 0 W/m 3,2 C 4,8 C 7,9 km/h (2 Bft)
03.12.2015 20:00 23,5 C 4,8 C 47 % 88 % 1029,4 hPa 0,0 l/m 0,2 km/h (0 Bft) S 0,00 h 0,0 UV-I 0 W/m 2,9 C 4,8 C 0,5 km/h (0 Bft)
03.12.2015 21:00 23,6 C 3,8 C 48 % 89 % 1029,1 hPa 0,0 l/m 0,0 km/h (0 Bft) N 0,00 h 0,0 UV-I 0 W/m 2,1 C 3,8 C 0,0 km/h (0 Bft)
03.12.2015 22:00 23,0 C 2,3 C 46 % 90 % 1029,1 hPa 0,0 l/m 0,0 km/h (0 Bft) N 0,00 h 0,0 UV-I 0 W/m 0,9 C 2,3 C 0,0 km/h (0 Bft)
03.12.2015 23:00 22,8 C 1,2 C 46 % 92 % 1028,6 hPa 0,0 l/m 0,0 km/h (0 Bft) N 0,00 h 0,0 UV-I 0 W/m -0,1 C 1,2 C 0,0 km/h (0 Bft)
04.12.2015 00:00 22,7 C 0,4 C 47 % 93 % 1028,3 hPa 0,0 l/m 0,0 km/h (0 Bft) N 0,00 h 0,0 UV-I 0 W/m -0,6 C 0,4 C 0,0 km/h (0 Bft)
04.12.2015 01:00 22,6 C -0,1 C 47 % 94 % 1027,9 hPa 0,0 l/m 0,0 km/h (0 Bft) N 0,00 h 0,0 UV-I 0 W/m -1,0 C -0,1 C 0,1 km/h (0 Bft)
04.12.2015 02:00 22,6 C -0,5 C 47 % 94 % 1027,9 hPa 0,0 l/m 0,0 km/h (0 Bft) N 0,00 h 0,0 UV-I 0 W/m -1,3 C -0,5 C 0,0 km/h (0 Bft)
04.12.2015 03:00 22,5 C -0,7 C 47 % 95 % 1028,0 hPa 0,0 l/m 0,0 km/h (0 Bft) N 0,00 h 0,0 UV-I 0 W/m -1,4 C -0,7 C 0,0 km/h (0 Bft)
04.12.2015 04:00 22,4 C -0,7 C 47 % 96 % 1027,8 hPa 0,0 l/m 0,0 km/h (0 Bft) N 0,00 h 0,0 UV-I 0 W/m -1,3 C -0,7 C 0,0 km/h (0 Bft)
04.12.2015 05:00 22,4 C 0,7 C 48 % 97 % 1027,9 hPa 0,0 l/m 0,5 km/h (0 Bft) SW 0,00 h 0,0 UV-I 0 W/m 0,3 C 0,7 C 1,8 km/h (1 Bft)
04.12.2015 06:00 22,4 C 2,0 C 48 % 97 % 1028,2 hPa 0,0 l/m 2,6 km/h (1 Bft) S 0,00 h 0,0 UV-I 0 W/m 1,6 C 1,9 C 6,8 km/h (2 Bft)
04.12.2015 07:00 22,7 C 2,1 C 49 % 97 % 1028,6 hPa 0,0 l/m 2,5 km/h (1 Bft) S 0,00 h 0,0 UV-I 6 W/m 1,7 C 2,0 C 6,7 km/h (2 Bft)
04.12.2015 08:00 22,7 C 1,8 C 49 % 97 % 1028,7 hPa 0,0 l/m 1,3 km/h (1 Bft) S 0,00 h 0,0 UV-I 30 W/m 1,4 C 1,8 C 3,9 km/h (1 Bft)
04.12.2015 09:00 22,9 C 1,7 C 49 % 96 % 1029,4 hPa 0,0 l/m 5,6 km/h (1 Bft) S 0,00 h 0,0 UV-I 81 W/m 1,2 C 0,6 C 10,1 km/h (2 Bft)
04.12.2015 10:00 23,1 C 1,8 C 48 % 96 % 1029,9 hPa 0,0 l/m 5,9 km/h (2 Bft) S 0,00 h 0,5 UV-I 97 W/m 1,1 C 0,7 C 11,1 km/h (2 Bft)
04.12.2015 11:00 23,0 C 1,9 C 46 % 94 % 1030,4 hPa 0,0 l/m 3,0 km/h (1 Bft) W-SW 0,00 h 0,5 UV-I 73 W/m 1,1 C 1,9 C 7,0 km/h (2 Bft)
04.12.2015 12:00 23,1 C 2,4 C 47 % 93 % 1030,7 hPa 0,0 l/m 1,9 km/h (1 Bft) S-SO 0,00 h 0,0 UV-I 50 W/m 1,4 C 2,4 C 5,1 km/h (1 Bft)
04.12.2015 13:00 23,1 C 2,7 C 46 % 94 % 1031,1 hPa 0,2 l/m 2,4 km/h (1 Bft) S 0,00 h 0,0 UV-I 33 W/m 1,8 C 2,6 C 5,5 km/h (1 Bft)
04.12.2015 14:00 23,0 C 3,1 C 45 % 95 % 1031,5 hPa 0,0 l/m 2,2 km/h (1 Bft) S 0,00 h 0,0 UV-I 22 W/m 2,4 C 3,1 C 5,4 km/h (1 Bft)
04.12.2015 15:00 22,7 C 3,2 C 46 % 96 % 1031,8 hPa 0,0 l/m 2,7 km/h (1 Bft) S 0,00 h 0,0 UV-I 7 W/m 2,5 C 3,0 C 5,8 km/h (1 Bft)
04.12.2015 16:00 22,8 C 3,5 C 46 % 96 % 1032,8 hPa 0,0 l/m 1,5 km/h (1 Bft) S 0,00 h 0,0 UV-I 0 W/m 2,9 C 3,5 C 3,6 km/h (1 Bft)
04.12.2015 17:00 22,9 C 3,7 C 45 % 96 % 1033,5 hPa 0,0 l/m 0,5 km/h (0 Bft) S 0,00 h 0,0 UV-I 0 W/m 3,1 C 3,7 C 1,9 km/h (1 Bft)
04.12.2015 18:00 23,1 C 4,1 C 45 % 97 % 1034,2 hPa 0,0 l/m 0,5 km/h (0 Bft) S 0,00 h 0,0 UV-I 0 W/m 3,6 C 4,1 C 1,7 km/h (1 Bft)
04.12.2015 19:00 23,3 C 4,4 C 47 % 97 % 1034,7 hPa 0,2 l/m 1,8 km/h (1 Bft) S 0,00 h 0,0 UV-I 0 W/m 3,9 C 4,3 C 4,4 km/h (1 Bft)
04.12.2015 20:00 23,3 C 4,7 C 47 % 97 % 1034,7 hPa 0,0 l/m 2,2 km/h (1 Bft) S 0,00 h 0,0 UV-I 0 W/m 4,2 C 4,7 C 4,6 km/h (1 Bft)
04.12.2015 21:00 23,2 C 4,9 C 46 % 97 % 1035,2 hPa 0,0 l/m 0,6 km/h (0 Bft) S 0,00 h 0,0 UV-I 0 W/m 4,5 C 4,9 C 1,5 km/h (1 Bft)
04.12.2015 22:00 23,3 C 5,1 C 47 % 98 % 1035,4 hPa 0,0 l/m 0,9 km/h (0 Bft) S 0,00 h 0,0 UV-I 0 W/m 4,8 C 5,1 C 2,9 km/h (1 Bft)
04.12.2015 23:00 23,1 C 5,3 C 47 % 98 % 1035,1 hPa 0,0 l/m 0,4 km/h (0 Bft) SW 0,00 h 0,0 UV-I 0 W/m 5,0 C 5,3 C 1,2 km/h (1 Bft)
05.12.2015 00:00 22,8 C 5,4 C 47 % 98 % 1034,7 hPa 0,0 l/m 0,5 km/h (0 Bft) SW 0,00 h 0,0 UV-I 0 W/m 5,1 C 5,4 C 2,3 km/h (1 Bft)
05.12.2015 01:00 22,7 C 5,6 C 47 % 98 % 1034,6 hPa 0,0 l/m 0,9 km/h (0 Bft) S 0,00 h 0,0 UV-I 0 W/m 5,3 C 5,6 C 2,9 km/h (1 Bft)
05.12.2015 02:00 22,6 C 5,7 C 47 % 98 % 1034,7 hPa 0,0 l/m 2,5 km/h (1 Bft) S 0,00 h 0,0 UV-I 0 W/m 5,4 C 5,6 C 5,8 km/h (2 Bft)
05.12.2015 03:00 22,4 C 5,6 C 48 % 98 % 1034,3 hPa 0,0 l/m 1,6 km/h (1 Bft) S 0,00 h 0,0 UV-I 0 W/m 5,2 C 5,6 C 3,6 km/h (1 Bft)
05.12.2015 04:00 22,1 C 5,4 C 48 % 97 % 1034,1 hPa 0,0 l/m 1,4 km/h (1 Bft) S 0,00 h 0,0 UV-I 0 W/m 5,0 C 5,5 C 3,2 km/h (1 Bft)
05.12.2015 05:00 21,6 C 5,2 C 49 % 97 % 1033,4 hPa 0,0 l/m 2,7 km/h (1 Bft) S 0,00 h 0,0 UV-I 0 W/m 4,8 C 5,2 C 5,5 km/h (1 Bft)
05.12.2015 06:00 21,6 C 5,2 C 49 % 97 % 1033,7 hPa 0,0 l/m 1,5 km/h (1 Bft) S 0,00 h 0,0 UV-I 0 W/m 4,7 C 5,2 C 2,9 km/h (1 Bft)
05.12.2015 07:00 22,2 C 5,2 C 49 % 98 % 1033,2 hPa 0,0 l/m 5,5 km/h (1 Bft) S 0,00 h 0,0 UV-I 0 W/m 4,9 C 4,8 C 9,8 km/h (2 Bft)
05.12.2015 08:00 22,7 C 5,0 C 50 % 97 % 1034,2 hPa 0,0 l/m 3,3 km/h (1 Bft) SW 0,00 h 0,0 UV-I 17 W/m 4,6 C 4,9 C 7,5 km/h (2 Bft)
05.12.2015 09:00 22,9 C 5,0 C 50 % 97 % 1034,3 hPa 0,0 l/m 4,7 km/h (1 Bft) S 0,00 h 0,0 UV-I 66 W/m 4,6 C 4,8 C 9,2 km/h (2 Bft)
05.12.2015 10:00 23,0 C 5,6 C 49 % 95 % 1033,9 hPa 0,0 l/m 6,4 km/h (2 Bft) S 0,18 h 0,5 UV-I 102 W/m 4,9 C 4,6 C 11,5 km/h (2 Bft)
05.12.2015 11:00 23,3 C 5,7 C 50 % 94 % 1033,5 hPa 0,2 l/m 4,5 km/h (1 Bft) W-SW 0,00 h 0,5 UV-I 57 W/m 4,8 C 5,5 C 9,1 km/h (2 Bft)
05.12.2015 12:00 23,4 C 6,0 C 51 % 93 % 1032,2 hPa 0,0 l/m 5,5 km/h (1 Bft) S 0,00 h 0,5 UV-I 76 W/m 5,0 C 5,7 C 10,1 km/h (2 Bft)
05.12.2015 13:00 23,4 C 6,3 C 52 % 93 % 1031,7 hPa 0,0 l/m 2,7 km/h (1 Bft) W-SW 0,00 h 0,5 UV-I 58 W/m 5,2 C 6,2 C 6,3 km/h (2 Bft)
05.12.2015 14:00 23,6 C 6,6 C 52 % 92 % 1031,2 hPa 0,0 l/m 1,1 km/h (1 Bft) S 0,00 h 0,0 UV-I 59 W/m 5,5 C 6,6 C 3,1 km/h (1 Bft)
05.12.2015 15:00 23,4 C 6,5 C 53 % 93 % 1030,8 hPa 0,0 l/m 1,4 km/h (1 Bft) S 0,00 h 0,0 UV-I 25 W/m 5,5 C 6,4 C 3,8 km/h (1 Bft)
05.12.2015 16:00 23,4 C 6,3 C 53 % 94 % 1031,1 hPa 0,0 l/m 1,4 km/h (1 Bft) S 0,00 h 0,0 UV-I 0 W/m 5,4 C 6,3 C 3,8 km/h (1 Bft)
05.12.2015 17:00 23,3 C 5,8 C 51 % 94 % 1030,7 hPa 0,0 l/m 1,4 km/h (1 Bft) S 0,00 h 0,0 UV-I 0 W/m 4,9 C 5,8 C 4,3 km/h (1 Bft)
05.12.2015 18:00 23,2 C 5,4 C 50 % 95 % 1030,3 hPa 0,0 l/m 2,9 km/h (1 Bft) S 0,00 h 0,0 UV-I 0 W/m 4,7 C 5,4 C 6,2 km/h (2 Bft)
05.12.2015 19:00 23,5 C 5,8 C 53 % 96 % 1030,2 hPa 0,0 l/m 4,1 km/h (1 Bft) S 0,00 h 0,0 UV-I 0 W/m 5,2 C 5,6 C 7,9 km/h (2 Bft)
05.12.2015 20:00 23,5 C 6,1 C 52 % 96 % 1029,9 hPa 0,0 l/m 4,1 km/h (1 Bft) S 0,00 h 0,0 UV-I 0 W/m 5,5 C 5,9 C 8,2 km/h (2 Bft)
05.12.2015 21:00 23,6 C 6,0 C 52 % 96 % 1029,8 hPa 0,0 l/m 4,1 km/h (1 Bft) S 0,00 h 0,0 UV-I 0 W/m 5,5 C 5,8 C 8,9 km/h (2 Bft)
05.12.2015 22:00 23,5 C 6,1 C 51 % 97 % 1029,9 hPa 0,0 l/m 4,2 km/h (1 Bft) S 0,00 h 0,0 UV-I 0 W/m 5,7 C 6,0 C 9,3 km/h (2 Bft)
05.12.2015 23:00 23,2 C 6,2 C 51 % 97 % 1029,7 hPa 0,0 l/m 3,0 km/h (1 Bft) S 0,00 h 0,0 UV-I 0 W/m 5,7 C 6,0 C 7,3 km/h (2 Bft)
06.12.2015 00:00 22,9 C 6,2 C 51 % 97 % 1029,2 hPa 0,0 l/m 5,4 km/h (1 Bft) S 0,00 h 0,0 UV-I 0 W/m 5,7 C 5,7 C 10,5 km/h (2 Bft)
06.12.2015 01:00 22,8 C 5,9 C 51 % 97 % 1028,7 hPa 0,0 l/m 3,0 km/h (1 Bft) S 0,00 h 0,0 UV-I 0 W/m 5,5 C 5,8 C 6,8 km/h (2 Bft)
06.12.2015 02:00 22,7 C 5,6 C 51 % 96 % 1028,5 hPa 0,0 l/m 1,3 km/h (1 Bft) S 0,00 h 0,0 UV-I 0 W/m 5,1 C 5,5 C 3,4 km/h (1 Bft)
06.12.2015 03:00 22,6 C 5,2 C 51 % 96 % 1028,3 hPa 0,0 l/m 3,0 km/h (1 Bft) S 0,00 h 0,0 UV-I 0 W/m 4,6 C 5,0 C 7,3 km/h (2 Bft)
06.12.2015 04:00 22,5 C 4,6 C 51 % 96 % 1027,8 hPa 0,0 l/m 1,1 km/h (0 Bft) S-SW 0,00 h 0,0 UV-I 0 W/m 4,0 C 4,6 C 3,5 km/h (1 Bft)
06.12.2015 05:00 22,4 C 4,2 C 51 % 96 % 1027,9 hPa 0,0 l/m 1,1 km/h (1 Bft) SW 0,00 h 0,0 UV-I 0 W/m 3,7 C 4,2 C 3,4 km/h (1 Bft)
06.12.2015 06:00 22,4 C 4,1 C 51 % 97 % 1028,2 hPa 0,0 l/m 2,4 km/h (1 Bft) S 0,00 h 0,0 UV-I 0 W/m 3,7 C 4,0 C 5,5 km/h (1 Bft)
06.12.2015 07:00 22,4 C 4,2 C 51 % 96 % 1028,4 hPa 0,0 l/m 3,8 km/h (1 Bft) S 0,00 h 0,0 UV-I 5 W/m 3,7 C 4,0 C 8,2 km/h (2 Bft)
06.12.2015 08:00 22,8 C 4,0 C 52 % 96 % 1029,0 hPa 0,0 l/m 3,1 km/h (1 Bft) SW 0,00 h 0,0 UV-I 16 W/m 3,5 C 3,9 C 7,4 km/h (2 Bft)
06.12.2015 09:00 23,0 C 4,1 C 51 % 96 % 1029,6 hPa 0,0 l/m 1,9 km/h (1 Bft) S 0,02 h 0,5 UV-I 75 W/m 3,5 C 4,1 C 4,3 km/h (1 Bft)
06.12.2015 10:00 22,9 C 5,4 C 50 % 93 % 1029,6 hPa 0,0 l/m 3,6 km/h (1 Bft) S 0,92 h 0,7 UV-I 230 W/m 4,4 C 5,2 C 7,8 km/h (2 Bft)
06.12.2015 11:00 22,7 C 7,2 C 49 % 88 % 1029,1 hPa 0,0 l/m 6,0 km/h (2 Bft) S-SW 1,00 h 0,9 UV-I 272 W/m 5,3 C 6,5 C 11,2 km/h (2 Bft)
06.12.2015 12:00 22,7 C 7,8 C 50 % 86 % 1028,7 hPa 0,0 l/m 4,5 km/h (1 Bft) SW 1,00 h 0,9 UV-I 277 W/m 5,6 C 7,6 C 9,0 km/h (2 Bft)
06.12.2015 13:00 22,7 C 7,7 C 50 % 87 % 1028,5 hPa 0,0 l/m 6,4 km/h (2 Bft) S 1,00 h 0,7 UV-I 232 W/m 5,6 C 7,1 C 11,3 km/h (2 Bft)
06.12.2015 14:00 22,7 C 7,7 C 49 % 86 % 1028,5 hPa 0,0 l/m 5,2 km/h (1 Bft) S-SW 0,18 h 0,5 UV-I 123 W/m 5,5 C 7,3 C 10,5 km/h (2 Bft)
06.12.2015 15:00 22,5 C 6,3 C 47 % 89 % 1028,8 hPa 0,0 l/m 3,7 km/h (1 Bft) S-SW 0,00 h 0,0 UV-I 21 W/m 4,7 C 6,2 C 8,6 km/h (2 Bft)
06.12.2015 16:00 22,6 C 5,2 C 49 % 93 % 1029,0 hPa 0,0 l/m 0,7 km/h (0 Bft) S 0,00 h 0,0 UV-I 0 W/m 4,1 C 5,2 C 2,5 km/h (1 Bft)
06.12.2015 17:00 22,8 C 4,6 C 49 % 94 % 1029,2 hPa 0,0 l/m 0,6 km/h (0 Bft) W-SW 0,00 h 0,0 UV-I 0 W/m 3,6 C 4,6 C 2,3 km/h (1 Bft)
06.12.2015 18:00 22,9 C 4,5 C 49 % 95 % 1029,5 hPa 0,0 l/m 1,3 km/h (1 Bft) S 0,00 h 0,0 UV-I 0 W/m 3,8 C 4,5 C 3,4 km/h (1 Bft)
06.12.2015 19:00 23,2 C 4,7 C 50 % 96 % 1030,1 hPa 0,0 l/m 2,2 km/h (1 Bft) SW 0,00 h 0,0 UV-I 0 W/m 4,1 C 4,6 C 4,9 km/h (1 Bft)
06.12.2015 20:00 23,4 C 4,8 C 51 % 96 % 1030,7 hPa 0,0 l/m 1,6 km/h (1 Bft) S 0,00 h 0,0 UV-I 0 W/m 4,2 C 4,8 C 3,5 km/h (1 Bft)
06.12.2015 21:00 23,4 C 4,7 C 51 % 96 % 1031,1 hPa 0,0 l/m 3,8 km/h (1 Bft) S 0,00 h 0,0 UV-I 0 W/m 4,1 C 4,6 C 7,7 km/h (2 Bft)
06.12.2015 22:00 23,4 C 4,7 C 50 % 97 % 1031,5 hPa 0,0 l/m 2,4 km/h (1 Bft) S 0,00 h 0,0 UV-I 0 W/m 4,2 C 4,7 C 5,8 km/h (2 Bft)
06.12.2015 23:00 23,1 C 4,9 C 50 % 97 % 1031,7 hPa 0,0 l/m 2,0 km/h (1 Bft) S 0,00 h 0,0 UV-I 0 W/m 4,5 C 4,9 C 5,1 km/h (1 Bft)
Min-Datum _ 30.11.15 04.12.15 30.11.15 03.12.15 30.11.15 - 30.11.15 - - - - 04.12.15 30.11.15 30.11.15
_ Min-Zeit 11:09 03:20 10:47 14:15 01:37 - 13:44 - - - - 03:20 05:41 00:59
Minimum _ 21,1 C -0,8 C 39 % 82 % 1013,3 hPa - 0,0 km/h (0 Bft) - - - - -1,5 C -5,0 C 0,0 km/h (0 Bft)
Max-Datum _ 02.12.15 02.12.15 01.12.15 01.12.15 04.12.15 01.12.15 30.11.15 - 06.12.15 06.12.15 06.12.15 02.12.15 02.12.15 30.11.15
_ Max-Zeit 19:07 00:22 21:24 21:13 21:57 09:19 05:41 - 10:46 11:12 12:52 00:22 00:22 02:31
Maximum _ 23,9 C 9,0 C 56 % 98 % 1035,5 hPa 2,2 l/m 35,4 km/h
W (5 Bft)
- 0,03 h 0,9 UV-I 357 W/m 8,5 C 9,0 C 56,3 km/h
W-SW (7 Bft)
Durchschnitt _ 23,0 C 5,8 C 50 % 94 % 1027,0 hPa #28,6 l/m 4,4 km/h (1 Bft) W-SW #4:18 h 0,6 UV-I 51 W/m 4,9 C 4,8 C 8,1 km/h (2 Bft)